Home   Weather   Rzeszów   Past weeks

Flag for Poland Past Weather in Rzeszów, Poland — Yesterday and Last 2 Weeks

Now
61 °F

Clear.


Feels Like: 61 °F
Forecast: 58 / 71 °F
Wind: 8 mph from Southwest

Location: Rzeszow-Jasionka

Current Time: Sep 29, 2016 at 12:21:40 AM

Latest Report: Sep 29, 2016 at 12:00 AM


Visibility: 10 mi

Pressure: 30.15 "Hg

Humidity: 72%

Dew Point: 52 °F

Location of RzeszówLocation

Past Weather in Rzeszów — Graph

°F

Rzeszów Temperature Yesterday

Maximum temperature yesterday: 66 °F (at 2:00 PM)
Minimum temperature yesterday: 34 °F (at 5:30 AM)
Average temperature yesterday: 52 °F

High & Low Weather Summary for the Past Weeks

 TemperatureHumidityPressure
High81 °F (Sep 16, 2:00 PM)100% (Sep 14, 12:30 AM)30.36 "Hg (Sep 14, 12:30 AM)
Low34 °F (Sep 28, 5:30 AM)38% (Sep 15, 4:00 PM)29.83 "Hg (Sep 17, 2:00 PM)
Average55 °F81%30.09 "Hg
* Reported Sep 13 11:00 PM — Sep 28 11:00 PM, Rzeszów, Weather by CustomWeather, © 2016

Note: Actual official high and low records may vary slightly from our data, if they occured in-between our weather recording intervals... More about our weather records

Advertising

Rzeszów Weather History for the Previous 24 Hours

Scroll right to see more
 ConditionsComfort  
Time TempWeatherWind HumidityBarometerVisibility
11:00 PM
Wed, Sep 28
59 °FClear.8 mph72%30.15 "Hg10 mi
10:30 PM59 °FClear.8 mph72%30.15 "Hg10 mi
10:00 PM57 °FClear.7 mph77%30.15 "Hg10 mi
9:30 PM59 °FClear.9 mph72%30.15 "Hg10 mi
9:00 PM59 °FClear.14 mph72%30.15 "Hg10 mi
8:30 PM59 °FClear.14 mph77%30.15 "Hg10 mi
8:00 PM59 °FClear.14 mph77%30.15 "Hg10 mi
7:30 PM59 °FClear.10 mph77%30.18 "Hg10 mi
7:00 PM61 °FClear.10 mph72%30.18 "Hg10 mi
6:30 PM61 °FClear.12 mph72%30.18 "Hg10 mi
6:00 PM63 °FSunny.12 mph73%30.18 "Hg10 mi
5:30 PM64 °FSunny.12 mph68%30.18 "Hg10 mi
5:00 PM64 °FSunny.8 mph68%30.18 "Hg10 mi
4:30 PM66 °FSunny.8 mph64%30.21 "Hg10 mi
4:00 PM64 °FSunny.9 mph68%30.21 "Hg10 mi
3:30 PM64 °FSunny.13 mph64%30.21 "Hg10 mi
3:00 PM66 °FSunny.17 mph56%30.21 "Hg10 mi
2:30 PM66 °FSunny.15 mph56%30.24 "Hg10 mi
2:00 PM66 °FSunny.12 mph56%30.24 "Hg10 mi
1:30 PM63 °FSunny.10 mph59%30.24 "Hg10 mi
1:00 PM63 °FSunny.12 mph59%30.24 "Hg10 mi
12:30 PM63 °FPassing clouds.10 mph59%30.27 "HgN/A
12:00 PM63 °FSunny.8 mph59%30.27 "Hg10 mi
11:30 AM61 °FPassing clouds.8 mph68%30.27 "HgN/A
11:00 AM59 °FPassing clouds.6 mph68%30.30 "HgN/A
10:30 AM57 °FPassing clouds.6 mph72%30.30 "HgN/A
10:00 AM52 °FSunny.8 mph82%30.30 "Hg10 mi
9:30 AM50 °FSunny.8 mph82%30.30 "Hg10 mi
9:00 AM48 °FClear.3 mph87%30.30 "Hg5 mi
8:30 AM43 °FClear.2 mph93%30.30 "Hg5 mi
8:00 AM39 °FClear.2 mph93%30.33 "Hg5 mi
7:30 AM36 °FFog.1 mph100%30.33 "Hg3 mi
7:00 AM34 °FSleet. Cloudy.1 mph93%30.33 "Hg2 mi
6:30 AM34 °FFog.1 mph100%30.33 "Hg2 mi
6:00 AM34 °FFog.2 mph100%30.33 "Hg2 mi
5:30 AM34 °FFog.1 mph100%30.33 "Hg3 mi
5:00 AM36 °FSleet. Overcast.2 mph100%30.33 "Hg2 mi
4:30 AM36 °FFog.2 mph100%30.33 "Hg3 mi
4:00 AM36 °FFog.1 mph100%30.33 "Hg3 mi
3:30 AM36 °FFog.1 mph100%30.33 "Hg2 mi
3:00 AM36 °FSleet. Overcast.1 mph100%30.33 "Hg1 mi
2:00 AM37 °FSleet. Overcast.1 mph100%30.33 "Hg1 mi
1:30 AM39 °FSleet. Overcast.1 mph100%30.33 "Hg1 mi
1:00 AM39 °FSleet. Overcast.1 mph93%30.33 "Hg1 mi
12:30 AM41 °FSleet. Overcast.1 mph100%30.36 "Hg1 mi
12:00 AM43 °FSleet. Overcast.1 mph93%30.36 "Hg3 mi
Weather by CustomWeather, © 2016

See weather overviewHow to use our weather pages